Regional Weather Roundup
Issued by NWS

Home | Current Version | Previous Version | Text Only | Print | Product List | Glossary Off
Versions: 1 2 3 4 5 6 7 8 9 10 11 12 13 14 15 16 17 18 19 20 21 22 23 24 25 26 27 28 29 30 31 32 33 34 35 36 37 38 39 40 41 42 43 44 45 46 47 48 49 50

000
ASUS45 KCYS 030410
RWRWY

WYOMING REGIONAL WEATHER ROUNDUP
NATIONAL WEATHER SERVICE CHEYENNE WY
1000 PM MDT THU JUL 02 2015

NOTE:  "FAIR" INDICATES FEW OR NO CLOUDS BELOW 12,000 FEET
WITH NO SIGNIFICANT WEATHER AND/OR OBSTRUCTIONS TO VISIBILITY.

WYZ001-030500-
YELLOWSTONE NATIONAL PARK

CITY           SKY/WX    TMP DP  RH WIND       PRES   REMARKS
LK YELLOWSTONE   N/A     63  39  41 NW3       30.34R
W YELLOWSTONE  NOT AVBL

$$
WYZ002>013-054>058-071-098>099-030500-
NORTHERN WYOMING

CITY           SKY/WX    TMP DP  RH WIND       PRES   REMARKS
JACKSON        FAIR      63  41  45 CALM      30.20R
CODY           FAIR      70  48  46 CALM      30.18R
GREYBULL       CLOUDY    80  49  33 VRB6      30.07R
WORLAND        MOCLDY    77  53  43 SE8       30.10R
SHERIDAN       FAIR      65  55  70 SE3       30.13R
BUFFALO        MOCLDY    66  55  67 W8        30.20R
GILLETTE       FAIR      60  52  74 W3        30.16R
HULETT         FAIR      63  55  77 SE7       30.16R
NEWCASTLE      FAIR      63  52  67 N5        30.16R

$$
WYZ014>020-022>026-101>103-030500-
CENTRAL WYOMING

CITY           SKY/WX    TMP DP  RH WIND       PRES   REMARKS
BIG PINEY      FAIR      63  37  38 N12       30.24R
PINEDALE       FAIR      66  37  34 NW3       30.26R
DUBOIS         FAIR      64  45  48 SE10      30.29R
LANDER         MOCLDY    70  53  54 W8        30.17R
RIVERTON       MOCLDY    74  53  48 E8        30.18R
CASPER         FAIR      68  53  58 NE12      30.20R
DOUGLAS        FAIR      64  57  78 E7        30.21R

$$
WYZ021-027>030-104>119-030500-
SOUTHERN WYOMING

CITY           SKY/WX    TMP DP  RH WIND       PRES   REMARKS
EVANSTON       FAIR      73  40  30 NW6       30.24R
KEMMERER       FAIR     N/A N/A N/A N12G18    30.26R
FORT BRIDGER   CLEAR     75  32  20 N7        30.25R
ROCK SPRINGS   FAIR      67  45  45 E7        30.22R
DIXON          FAIR      70  44  39 E14G23    30.23S
RAWLINS        FAIR      61  55  81 NE8       30.25S
SARATOGA       FAIR      55  50  82 SE10      30.30R
LARAMIE        FAIR      60  52  74 SE7       30.32R
CHEYENNE       FAIR      67  53  61 CALM      30.26R
TORRINGTON     MOCLDY    68  60  75 NE8       30.14R
PINE BLUFFS    FAIR      66  54  63 CALM      30.21R

$$


USA.gov is the U.S. government's official web portal to all federal, state and local government web resources and services.